Location: Julian California
(33.0790°N, 116.6010°W)
Time: 03:30:50
(UTC-07:00)

CZ-2C R/B - Pass Details

Date: 14 June 2018
Orbit: 785 x 870 km, 98.4° (Epoch: 20 June)

Event Time Altitude Azimuth Distance (km) Brightness Sun altitude
Rises 22:21:43 0° 23° (NNE) 3,412 6.3 -23.8°
Reaches altitude 10° 22:24:20 10° 33° (NNE) 2,460 5.4 -24.2°
Enters shadow 22:28:17 32° 75° (ENE) 1,395 3.6 -24.7°
